Location: Ponte Samoggia
(44.5667°N, 11.1333°E)
Time: 22:39:26
(UTC+00:00)

Cosmos 1606 Rocket - Pass Details

Date: 26 May 2022
Orbit: 601 x 632 km, 82.5° (Epoch: 29 June)

Event Time Altitude Azimuth Distance (km) Brightness Sun altitude
Rises 02:27:56 0° 347° (NNW) 2,915 7.5 -10.6°
Reaches altitude 10° 02:30:12 10° 343° (NNW) 1,999 6.5 -10.3°
Maximum altitude 02:34:32 57° 266° (W) 731 3.7 -9.8°
Drops below altitude 10° 02:38:48 10° 188° (S) 1,963 5.7 -9.2°
Enters shadow 02:40:13 - 185° (S) 2,531 6.3 -9.0°
